Weather Roundup
Issued by NWS Springfield, MO

Home | Current Version | Previous Version | Text Only | Print | Product List | Glossary On
Versions: 1 2 3 4 5 6 7 8 9 10 11 12 13 14 15 16 17 18 19 20 21 22 23 24 25 26 27 28 29 30 31 32 33 34 35 36 37 38 39 40 41 42 43 44 45 46 47 48 49 50
000
NZUS99 KSGF 120959
HRRSGF

HOURLY WEATHER
NATIONAL WEATHER SERVICE SPRINGFIELD MO
500 AM CDT SAT JUL 12 2014

......SGF CWA......

CITY           SKY/WX    TMP DP  RH WIND       PRES   REMARKS
SPRINGFIELD    CLEAR     73  69  87 S9        30.12S
JOPLIN         CLEAR     77  67  71 S12       30.11S
WEST PLAINS    CLOUDY    75  73  93 VRB6      30.16R FOG
ROLLA          MOCLDY    75  72  90 S8        30.11R
OSAGE BEACH    PTCLDY    75  70  83 S3        30.10R
BRANSON        PTCLDY    73  70  88 S5        30.16S

......SURROUNDING SGF CWA......

CITY           SKY/WX    TMP DP  RH WIND       PRES   REMARKS
CHANUTE        CLEAR     74  68  81 S10       30.09R
PARSONS        CLEAR     73  67  81 S3        30.10R
COFFEYVILLE    CLEAR     74  69  85 S9        30.08S HAZE
EMPORIA        CLEAR     70  66  87 S9        30.06R
SILOAM SPRINGS CLEAR     72  63  73 S7        30.16S
HARRISON AR    CLEAR     74  69  85 SE5       30.16S
NEAR YELLVILLE PTCLDY    73  70  88 CALM      30.13S

......KANSAS AND MISSOURI......

CITY           SKY/WX    TMP DP  RH WIND       PRES   REMARKS
KANSAS CTY INT PTCLDY    77  68  73 SW10      30.05R
DOWNTOWN KC    PTCLDY    80  66  62 SW10      30.04R
COLUMBIA       CLOUDY    78  73  84 SW8       30.09R
SEDALIA        MOCLDY    78  71  79 SW9       30.09R
ST JOSEPH      CLOUDY    76  71  85 S6        30.03S
ST LOUIS       CLOUDY    81  72  74 SW8       30.08F
SPIRIT OF STL  CLOUDY    77  71  82 SW5       30.07S
KIRKSVILLE     CLOUDY    78  71  79 SW7       30.05R
WICHITA        CLEAR     74  62  66 S13       30.05S
TOPEKA         PTCLDY    79  67  66 S6        30.04S
OLATHE         CLEAR     72  68  87 S5        30.07R

......TENNESSEE......

CITY           SKY/WX    TMP DP  RH WIND       PRES   REMARKS
MEMPHIS        CLEAR     75  72  90 CALM      30.14R
NASHVILLE      CLEAR     69  65  86 CALM      30.17R

......ARKANSAS.......

CITY           SKY/WX    TMP DP  RH WIND       PRES   REMARKS
FAYETTEVILLE   CLEAR     67  67 100 CALM      30.16S
FT SMITH       CLEAR     75  72  90 E3        30.12S
LITTLE ROCK    PTCLDY    75  72  90 CALM      30.14S

......OKLAHOMA.......

CITY           SKY/WX    TMP DP  RH WIND       PRES   REMARKS
TULSA          CLEAR     78  65  63 S9        30.08F
PONCA CITY     PTCLDY    76  63  64 S5        30.07F
MCALESTER      CLEAR     74  67  78 S5        30.13F
OKLAHOMA CITY  PTCLDY    74  63  68 S6        30.12S

......IOWA............

CITY           SKY/WX    TMP DP  RH WIND       PRES   REMARKS
DES MOINES     LGT RAIN  73  69  87 N9        30.03F
QUAD CITIES    CLOUDY    74  69  85 SW3       30.00R

......ILLINOIS........

CITY           SKY/WX    TMP DP  RH WIND       PRES   REMARKS
QUINCY         CLOUDY    77  72  84 SW8       30.04R
CHICAGO        MOCLDY    73  59  61 S8        30.03F




USA.gov is the U.S. government's official web portal to all federal, state and local government web resources and services.